Regional Weather Roundup
Issued by NWS

Home | Current Version | Previous Version | Graphics & Text | Print | Product List | Glossary On
Versions: 1 2 3 4 5 6 7 8 9 10 11 12 13 14 15 16 17 18 19 20 21 22 23 24 25 26 27
000
ASUS45 KBOU 310607
RWRCO

WEATHER ROUNDUP FOR COLORADO
NATIONAL WEATHER SERVICE DENVER/BOULDER CO
1200 AM MDT FRI OCT 31 2014

NOTE: "FAIR" INDICATES FEW OR NO CLOUDS BELOW 12000 FEET WITH NO
SIGNIFICANT WEATHER AND/OR OBSTRUCTIONS TO VISIBILITY.

COZ001>005-013-030-031-310700-
...NORTHWEST COLORADO...

CITY           SKY/WX    TMP DP  RH WIND       PRES   REMARKS
CRAIG          PTCLDY    30  25  81 CALM      30.31F
HAYDEN         PTCLDY    39  27  60 E12       30.32F
MEEKER         PTCLDY    35  28  75 E5        30.30F WCI  31
MOUNT WERNER   NOT AVBL
STEAMBOAT SPGS PTCLDY    35  27  73 CALM      30.34F
WALDEN         CLEAR     28  23  80 SE5       30.39F WCI  23
$$

COZ006>008-011-310700-
...WEST CENTRAL VALLEYS...

CITY           SKY/WX    TMP DP  RH WIND       PRES   REMARKS
GRAND JUNCTION CLEAR     45  26  47 E12       30.22S
MONTROSE       CLEAR     41  26  55 S8        30.29F
EAGLE          CLEAR     34  25  69 CALM      30.39S
RIFLE          CLEAR     39  25  57 S3        30.28F
DELTA          CLEAR     45  26  47 CALM      30.26F
NUCLA          CLEAR     45  23  42 E7        30.31S
$$

COZ017>023-064>068-310700-
...SOUTHWEST COLORADO...

CITY           SKY/WX    TMP DP  RH WIND       PRES   REMARKS
DURANGO        CLEAR     34  25  69 NE5       30.36R WCI  30
CORTEZ         CLEAR     34  24  67 E5        30.29F WCI  30
PAGOSA SPRINGS CLEAR     38  21  50 CALM      30.41S
TELLURIDE      PTCLDY    44  17  34 SE6       30.44F
WOLF CREEK PAS CLEAR     36  14  41 SW18      30.59F
$$

COZ009-010-012-014-032>034-037-058>063-310700-
...CENTRAL COLORADO...

CITY           SKY/WX    TMP DP  RH WIND       PRES   REMARKS
ASPEN          CLEAR     35  22  58 S8        30.38F WCI  29
BUENA VISTA    CLEAR     28  20  71 W6        30.49S WCI  22
COPPER MTN     PTCLDY    37  10  32 S20       30.57S
BERTHOUD PASS  FAIR      30  27  86 W8        30.58F WCI  23
COTTONWOOD PAS CLEAR     37  19  48 CALM      30.53S
GUNNISON       CLEAR     30  18  59 CALM      30.43F
KREMMLING      CLEAR     30  25  80 CALM      30.41S
LEADVILLE      CLEAR     29  14  53 NE5       30.51S WCI  24
MONARCH PASS   PTCLDY    36  12  38 SW9       30.69S
SALIDA         CLEAR     37  23  56 SW5       30.54S
SUNLIGHT       CLEAR     41  19  42 CALM      30.51F
WILKERSON PASS NOT AVBL
$$

COZ069>075-310700-
...SAN LUIS VALLEY/SANGRE DE CRISTO MOUNTAINS...

CITY           SKY/WX    TMP DP  RH WIND       PRES   REMARKS
ALAMOSA        PTCLDY    33  18  53 VRB3      30.39S
LA VETA PASS   CLEAR     32  19  59 N6        30.52F WCI  26
SAGUACHE       CLEAR     36  16  44 NW14      30.42S
$$

COZ035-036-038>040-310700-
...NORTHERN COLORADO FRONT RANGE...

CITY           SKY/WX    TMP DP  RH WIND       PRES   REMARKS
DENVER INTL AP CLEAR     38  26  62 SE10      30.39F
DMNS CITY PARK   N/A     42  28  56 E5        30.39F
AURORA         CLEAR     44  26  49 SE12      30.40F
FRONT RANGE AP CLEAR     39  30  70 S12       30.41S
ERIE MUNI ARPT PTCLDY    33  29  83 CALM      30.40S
BOULDER MUN AP PTCLDY    41  30  65 CALM      30.40S
CENTENNIAL     PTCLDY    41  26  55 S8        30.40F
BROOMFIELD     PTCLDY    46  28  49 W3        30.40F
FORT COLLINS   CLEAR     45  27  49 E6        30.42S
LONGMONT       CLEAR     38  30  73 CALM      30.42S
$$

COZ041-046-047-076>085-087-088-310700-
...PIKES PEAK/PALMER DIVIDE AND SOUTHERN FOOTHILLS...

CITY           SKY/WX    TMP DP  RH WIND       PRES   REMARKS
COLO. SPRINGS  PTCLDY    43  24  47 SE6       30.46S
A. F. ACADEMY  CLEAR     32  22  66 N2        30.45S
ELLICOTT       PTCLDY    38  24  57 SE5       30.44S
FALCON         PTCLDY    36  24  61 CALM      30.46F
FORT CARSON    PTCLDY    45  24  43 S6        30.44S
LIMON          CLEAR     30  23  75 CALM      30.44S
MONUMENT HILL  PTCLDY    34  23  64 S12       30.43F WCI  25
TRINIDAD       PTCLDY    39  23  52 W9        30.43S
$$

COZ042>045-048>051-090-091-310700-
...NORTHEAST COLORADO...

CITY           SKY/WX    TMP DP  RH WIND       PRES   REMARKS
GREELEY ARPT   CLEAR     34  21  60 N8        30.42S WCI  27
AKRON          CLEAR     36  28  73 E12       30.42S
BURLINGTON     CLEAR     37  26  64 E10       30.42S
WRAY           CLEAR     35  29  78 CALM      30.45R
STERLING       NOT AVBL
HOLYOKE        CLEAR     34  28  80 CALM      30.45R
FORT MORGAN    CLEAR     36  28  71 E8        30.43R
$$

COZ086-089-092>099-310700-
...SOUTHEAST COLORADO...

CITY           SKY/WX    TMP DP  RH WIND       PRES   REMARKS
PUEBLO         CLEAR     40  23  50 CALM      30.42S
LA JUNTA       CLEAR     40  26  57 NE7       30.41R
LAMAR          CLEAR     34  26  72 CALM      30.40R
SPRINGFIELD      N/A     41  25  53 N3        30.41R
$$



USA.gov is the U.S. government's official web portal to all federal, state and local government web resources and services.